Alexandria, MN

6:30 AM CST on November 19, 2019 (GMT -0600)
Chandler

Weather History for KAXN - October, 2019

Change the Weather History Date:

Monday, October 21, 2019

  Actual Average Record
Temperature  
Mean Temperature 47 °F -  
Max Temperature 54 °F 54 °F 77 °F (1953)
Min Temperature 41 °F 35 °F 20 °F (1976)
Degree Days  
Heating Degree Days 18    
Moisture  
Dew Point 39 °F    
Average Humidity 82    
Maximum Humidity 89    
Minimum Humidity 57    
Precipitation  
Precipitation 1.10 in - - ()
Sea Level Pressure  
Sea Level Pressure 29.42 in    
Wind  
Wind Speed 18 mph ()    
Max Wind Speed 36 mph    
Max Gust Speed 53 mph    
Visibility 7.5 miles    
Events Rain    
Averages and records for this station are not official NWS values.
T = Trace of Precipitation, MM = Missing Value Source: Averaged Metar Reports

Daily Weather History Graph

Daily Weather History Graph

Search for Another Location

Airport or City:

Astronomy

Oct. 21, 2019 Rise Set
Actual Time 7:46 AM CDT 6:25 PM CDT
Civil Twilight 7:15 AM CDT 6:55 PM CDT
Nautical Twilight 6:41 AM CDT 7:30 PM CDT
Astronomical Twilight 6:06 AM CDT 8:04 PM CDT
Moon No Moon Rise 3:16 PM CDT (10/21)
Length of Visible Light 11h 40m
Length of Day
10h 39m
Waning Gibbous, 48% of the Moon is Illuminated
Oct 21
Waning Gibbous
Oct 27
New
Nov 4
First Quarter
Nov 12
Full
Nov 19
Last Quarter

Hourly Weather History & Observations

Time (CDT) Temp. Windchill Dew Point Humidity Pressure Visibility Wind Dir Wind Speed Gust Speed Precip Events Conditions
12:53 AM 53.1 °F - 39.0 °F 59% 29.71 in 10.0 mi East 15.0 mph 20.7 mph 0.00 in   Overcast
1:53 AM 53.1 °F - 37.9 °F 57% 29.66 in 10.0 mi ESE 13.8 mph 21.9 mph 0.01 in   Overcast
2:53 AM 51.1 °F - 39.0 °F 63% 29.63 in 10.0 mi ENE 10.4 mph - N/A   Overcast
3:53 AM 51.1 °F - 39.9 °F 66% 29.61 in 10.0 mi East 12.7 mph - N/A   Overcast
4:53 AM 51.1 °F - 39.0 °F 63% 29.59 in 10.0 mi East 16.1 mph - N/A   Overcast
5:53 AM 50.0 °F - 41.0 °F 71% 29.60 in 10.0 mi ESE 12.7 mph - 0.00 in Rain Light Rain
6:53 AM 48.9 °F - 41.0 °F 74% 29.56 in 10.0 mi ENE 11.5 mph 23.0 mph 0.04 in Rain Light Rain
7:53 AM 46.9 °F - 39.9 °F 77% 29.54 in 10.0 mi ENE 12.7 mph 24.2 mph 0.02 in Rain Light Rain
8:53 AM 45.0 °F 38.2 °F 41.0 °F 86% 29.53 in 5.0 mi NE 15.0 mph 24.2 mph 0.09 in Rain Light Rain
9:53 AM 44.1 °F 37.4 °F 41.0 °F 89% 29.50 in 5.0 mi NNE 13.8 mph - 0.09 in Rain Light Rain
10:53 AM 45.0 °F 36.9 °F 41.0 °F 86% 29.45 in 10.0 mi NNE 20.7 mph 29.9 mph 0.08 in Rain Light Rain
11:34 AM 45.0 °F 37.6 °F 41.0 °F 86% 29.41 in 6.0 mi NNE 17.3 mph 33.4 mph 0.03 in Rain Light Rain
11:53 AM 44.1 °F 34.6 °F 41.0 °F 89% 29.42 in 4.0 mi NE 26.5 mph 36.8 mph 0.06 in Rain Rain
12:53 PM 44.1 °F 33.8 °F 39.0 °F 82% 29.37 in 10.0 mi NNE 31.1 mph 44.9 mph 0.05 in Rain Light Rain
1:53 PM 43.0 °F 32.7 °F 37.9 °F 82% 29.33 in 9.0 mi North 28.8 mph 43.7 mph 0.02 in Rain Light Rain
2:53 PM 42.1 °F 31.7 °F 37.9 °F 85% 29.30 in 6.0 mi North 27.6 mph 43.7 mph 0.03 in Rain Light Rain
3:09 PM 42.1 °F 31.0 °F 37.9 °F 85% 29.27 in 6.0 mi North 32.2 mph 51.8 mph 0.02 in Rain Light Rain
3:19 PM 42.1 °F 30.4 °F 37.9 °F 85% 29.27 in 6.0 mi North 35.7 mph 51.8 mph 0.03 in Rain Light Rain
3:53 PM 41.0 °F 29.8 °F 37.0 °F 86% 29.30 in 6.0 mi North 29.9 mph 49.5 mph 0.06 in Rain Light Rain
4:53 PM 42.1 °F 31.7 °F 37.9 °F 85% 29.29 in 10.0 mi North 27.6 mph 44.9 mph 0.02 in Rain Light Rain
5:26 PM 42.1 °F 33.1 °F 39.0 °F 89% 29.28 in 4.0 mi North 20.7 mph 39.1 mph 0.05 in Rain Rain
5:53 PM 42.1 °F 31.7 °F 39.0 °F 89% 29.31 in 3.0 mi North 27.6 mph 41.4 mph 0.12 in Rain Rain
6:24 PM 42.1 °F 30.8 °F 37.9 °F 85% 29.29 in 5.0 mi North 33.4 mph 50.6 mph 0.07 in Rain Rain
6:49 PM 41.0 °F 29.7 °F 37.4 °F 87% 29.30 in 4.0 mi North 31.1 mph 47.2 mph 0.12 in Rain Rain
6:53 PM 41.0 °F 29.7 °F 37.9 °F 89% 29.33 in 5.0 mi North 31.1 mph 47.2 mph 0.13 in Rain Light Rain
7:20 PM 41.0 °F 30.9 °F 37.9 °F 89% 29.32 in 6.0 mi North 24.2 mph 44.9 mph 0.04 in Rain Light Rain
7:31 PM 42.1 °F 31.3 °F 37.9 °F 85% 29.32 in 5.0 mi North 29.9 mph 52.9 mph 0.06 in Rain Light Rain
7:53 PM 41.0 °F 30.0 °F 37.9 °F 89% 29.36 in 6.0 mi North 28.8 mph 47.2 mph 0.09 in Rain Light Rain
8:53 PM 41.0 °F 30.9 °F 37.9 °F 89% 29.38 in 8.0 mi North 24.2 mph 41.4 mph 0.07 in Rain Light Rain
9:53 PM 43.0 °F 34.8 °F 39.9 °F 89% 29.38 in 10.0 mi NNW 18.4 mph 32.2 mph 0.04 in Rain Light Rain
10:53 PM 43.0 °F 33.8 °F 39.9 °F 89% 29.41 in 6.0 mi NNW 23.0 mph 47.2 mph 0.03 in Rain Rain
11:18 PM 42.1 °F 32.6 °F 39.0 °F 89% 29.38 in 7.0 mi NNW 23.0 mph 40.3 mph 0.04 in Rain Light Rain
11:31 PM 42.1 °F 33.1 °F 39.0 °F 89% 29.38 in 10.0 mi NNW 20.7 mph 43.7 mph 0.04 in Rain Light Rain
11:43 PM 42.1 °F 33.1 °F 39.0 °F 89% 29.39 in 9.0 mi NNW 20.7 mph 43.7 mph 0.05 in Rain Light Rain
11:53 PM 42.1 °F 31.9 °F 39.0 °F 89% 29.42 in 10.0 mi NNW 26.5 mph 43.7 mph 0.05 in Rain Light Rain